• In Moldova, Republic
  • List of Countries
  • For 7 days
  • Water Temperature
  • Satellite Maps
  • Weather Map
  • Weather Widgets
  • user-avatar
    Login

    Hourly Weather Batina

    Today, 11 December, Monday

    Time Temperature Precipitation Wind Pressure Humidity
    00:00 +5°C° 0 mm 5 mps 668 mmHg 69%
    01:00 +3°C° 0 mm 5 mps 668 mmHg 71%
    02:00 +4°C° 0 mm 4 mps 667 mmHg 74%
    03:00 +4°C° 0 mm 4 mps 667 mmHg 76%
    04:00 +4°C° 0 mm 4 mps 667 mmHg 77%
    05:00 +4°C° 0 mm 4 mps 667 mmHg 78%
    06:00 +3°C° 0 mm 5 mps 666 mmHg 77%
    07:00 +4°C° 0 mm 6 mps 666 mmHg 72%
    08:00 +6°C° 0 mm 7 mps 667 mmHg 66%
    09:00 +7°C° 0 mm 8 mps 667 mmHg 60%
    10:00 +8°C° 0 mm 9 mps 667 mmHg 56%
    11:00 +10°C° 0 mm 9 mps 667 mmHg 52%
    12:00 +11°C° 0 mm 9 mps 666 mmHg 47%
    13:00 +11°C° 0 mm 9 mps 666 mmHg 47%
    14:00 +10°C° 0 mm 9 mps 665 mmHg 48%
    15:00 +10°C° 0 mm 8 mps 665 mmHg 48%
    16:00 +9°C° 0 mm 8 mps 665 mmHg 53%
    17:00 +8°C° 0 mm 7 mps 665 mmHg 58%
    18:00 +7°C° 0 mm 6 mps 665 mmHg 62%
    19:00 +5°C° 0 mm 6 mps 665 mmHg 62%
    20:00 +5°C° 0 mm 6 mps 665 mmHg 62%
    21:00 +5°C° 0 mm 6 mps 665 mmHg 62%
    22:00 +6°C° 0 mm 5 mps 666 mmHg 60%
    23:00 +6°C° 0 mm 5 mps 666 mmHg 58%

    Tomorrow, 12 December, Tuesday

    Time Temperature Precipitation Wind Pressure Humidity
    00:00 +5°C° 0 mm 5 mps 666 mmHg 57%
    01:00 +5°C° 0 mm 4 mps 666 mmHg 56%
    02:00 +5°C° 0 mm 4 mps 666 mmHg 56%
    03:00 +5°C° 0 mm 4 mps 666 mmHg 56%
    04:00 +4°C° 0 mm 4 mps 666 mmHg 56%
    05:00 +4°C° 0 mm 3 mps 666 mmHg 55%
    06:00 +4°C° 0 mm 3 mps 666 mmHg 55%
    07:00 +5°C° 0 mm 3 mps 667 mmHg 51%
    08:00 +7°C° 0 mm 4 mps 668 mmHg 47%
    09:00 +8°C° 0 mm 4 mps 668 mmHg 43%
    10:00 +10°C° 0 mm 4 mps 669 mmHg 40%
    11:00 +10°C° 0 mm 5 mps 669 mmHg 37%
    12:00 +13°C° 0 mm 6 mps 669 mmHg 34%
    13:00 +12°C° 0 mm 5 mps 670 mmHg 34%
    14:00 +12°C° 0 mm 5 mps 670 mmHg 34%
    15:00 +12°C° 0 mm 4 mps 670 mmHg 34%
    16:00 +11°C° 0 mm 3 mps 670 mmHg 38%
    17:00 +10°C° 0 mm 3 mps 670 mmHg 41%
    18:00 +9°C° 0 mm 2 mps 670 mmHg 45%
    19:00 +8°C° 0 mm 2 mps 671 mmHg 46%
    20:00 +8°C° 0 mm 2 mps 671 mmHg 48%
    21:00 +9°C° 0 mm 1 mps 671 mmHg 49%
    22:00 +8°C° 0 mm 1 mps 672 mmHg 51%
    23:00 +8°C° 0 mm 1 mps 672 mmHg 52%

    Day after tomorrow, 13 December, Wednesday

    Time Temperature Precipitation Wind Pressure Humidity
    00:00 +8°C° 0 mm 1 mps 672 mmHg 53%
    01:00 +7°C° 0 mm 1 mps 672 mmHg 56%
    02:00 +7°C° 0 mm 1 mps 673 mmHg 59%
    03:00 +7°C° 0 mm 1 mps 673 mmHg 62%
    04:00 +6°C° 0 mm 1 mps 673 mmHg 65%
    05:00 +6°C° 0 mm 1 mps 673 mmHg 68%
    06:00 +5°C° 0 mm 1 mps 673 mmHg 71%
    07:00 +7°C° 0 mm 1 mps 674 mmHg 67%
    08:00 +8°C° 0 mm 1 mps 675 mmHg 62%
    09:00 +10°C° 0 mm 1 mps 676 mmHg 57%
    10:00 +10°C° 0 mm 1 mps 676 mmHg 54%
    11:00 +11°C° 0 mm 1 mps 676 mmHg 51%
    12:00 +12°C° 0 mm 2 mps 676 mmHg 47%
    13:00 +12°C° 0 mm 2 mps 676 mmHg 47%
    14:00 +12°C° 0 mm 2 mps 676 mmHg 47%
    15:00 +12°C° 0 mm 2 mps 676 mmHg 48%
    16:00 +10°C° 0 mm 2 mps 676 mmHg 54%
    17:00 +10°C° 0 mm 1 mps 675 mmHg 61%
    18:00 +9°C° 0 mm 1 mps 675 mmHg 68%
    19:00 +8°C° 0 mm 1 mps 676 mmHg 71%
    20:00 +8°C° 0 mm 1 mps 676 mmHg 74%
    21:00 +7°C° 0 mm 1 mps 676 mmHg 78%
    22:00 +7°C° 0 mm 1 mps 676 mmHg 77%
    23:00 +7°C° 0 mm 1 mps 676 mmHg 76%

    14 December, Thursday

    Time Temperature Precipitation Wind Pressure Humidity
    00:00 +6°C° 0 mm 1 mps 675 mmHg 76%
    01:00 +6°C° 0 mm 1 mps 675 mmHg 75%
    02:00 +6°C° 0 mm 1 mps 675 mmHg 74%
    03:00 +5°C° 0 mm 2 mps 675 mmHg 73%
    04:00 +5°C° 0 mm 2 mps 675 mmHg 73%
    05:00 +5°C° 0 mm 2 mps 675 mmHg 73%
    06:00 +5°C° 0 mm 2 mps 675 mmHg 73%
    07:00 +6°C° 0 mm 2 mps 675 mmHg 66%
    08:00 +8°C° 0 mm 3 mps 676 mmHg 60%
    09:00 +9°C° 0 mm 3 mps 676 mmHg 54%
    10:00 +11°C° 0 mm 3 mps 676 mmHg 49%
    11:00 +12°C° 0 mm 4 mps 676 mmHg 44%
    12:00 +13°C° 0 mm 4 mps 676 mmHg 39%
    13:00 +13°C° 0 mm 4 mps 675 mmHg 39%
    14:00 +13°C° 0 mm 4 mps 675 mmHg 39%
    15:00 +13°C° 0 mm 4 mps 674 mmHg 40%
    16:00 +11°C° 0 mm 3 mps 674 mmHg 46%
    17:00 +10°C° 0 mm 3 mps 674 mmHg 52%
    18:00 +8°C° 0 mm 2 mps 673 mmHg 58%
    19:00 +8°C° 0 mm 2 mps 673 mmHg 58%
    20:00 +8°C° 0 mm 2 mps 673 mmHg 58%
    21:00 +7°C° 0 mm 2 mps 673 mmHg 58%
    22:00 +7°C° 0 mm 3 mps 673 mmHg 58%
    23:00 +7°C° 0 mm 3 mps 672 mmHg 57%

    15 December, Friday

    Time Temperature Precipitation Wind Pressure Humidity
    00:00 +7°C° 0 mm 3 mps 672 mmHg 57%
    01:00 +5°C° 0 mm 3 mps 671 mmHg 57%
    02:00 +5°C° 0 mm 3 mps 671 mmHg 56%
    03:00 +5°C° 0 mm 3 mps 671 mmHg 56%
    04:00 +5°C° 0 mm 3 mps 670 mmHg 53%
    05:00 +5°C° 0 mm 3 mps 670 mmHg 51%
    06:00 +5°C° 0 mm 3 mps 670 mmHg 49%
    07:00 +7°C° 0 mm 4 mps 670 mmHg 44%
    08:00 +8°C° 0 mm 4 mps 671 mmHg 38%
    09:00 +10°C° 0 mm 5 mps 671 mmHg 33%
    10:00 +11°C° 0 mm 6 mps 671 mmHg 30%
    11:00 +12°C° 0 mm 7 mps 671 mmHg 28%
    12:00 +13°C° 0 mm 8 mps 671 mmHg 25%
    13:00 +14°C° 0 mm 7 mps 670 mmHg 26%
    14:00 +14°C° 0 mm 6 mps 669 mmHg 26%
    15:00 +14°C° 0 mm 5 mps 669 mmHg 26%
    16:00 +12°C° 0 mm 5 mps 668 mmHg 30%
    17:00 +11°C° 0 mm 4 mps 668 mmHg 34%
    18:00 +9°C° 0 mm 3 mps 668 mmHg 39%
    19:00 +9°C° 0 mm 3 mps 668 mmHg 39%
    20:00 +9°C° 0 mm 3 mps 668 mmHg 39%
    21:00 +9°C° 0 mm 3 mps 668 mmHg 39%
    22:00 +9°C° 0 mm 3 mps 667 mmHg 39%
    23:00 +8°C° 0 mm 3 mps 667 mmHg 39%

    16 December, Saturday

    Time Temperature Precipitation Wind Pressure Humidity
    00:00 +8°C° 0 mm 3 mps 667 mmHg 39%
    01:00 +8°C° 0 mm 3 mps 667 mmHg 40%
    02:00 +8°C° 0 mm 3 mps 666 mmHg 42%
    03:00 +8°C° 0 mm 3 mps 666 mmHg 43%
    04:00 +7°C° 0 mm 3 mps 666 mmHg 45%
    05:00 +7°C° 0 mm 2 mps 666 mmHg 47%
    06:00 +7°C° 0 mm 2 mps 666 mmHg 49%
    07:00 +8°C° 0 mm 2 mps 666 mmHg 46%
    08:00 +9°C° 0 mm 2 mps 667 mmHg 44%
    09:00 +10°C° 0 mm 2 mps 667 mmHg 41%
    10:00 +10°C° 0 mm 2 mps 667 mmHg 42%
    11:00 +12°C° 0 mm 2 mps 667 mmHg 43%
    12:00 +12°C° 0 mm 2 mps 667 mmHg 43%
    13:00 +11°C° 0 mm 3 mps 667 mmHg 49%
    14:00 +10°C° 0 mm 3 mps 667 mmHg 55%
    15:00 +8°C° 0 mm 4 mps 667 mmHg 61%
    16:00 +7°C° 0.1 mm 4 mps 667 mmHg 67%
    17:00 +6°C° 0.1 mm 4 mps 668 mmHg 73%
    18:00 +5°C° 0.1 mm 4 mps 668 mmHg 79%
    19:00 +5°C° 0 mm 4 mps 669 mmHg 79%
    20:00 +5°C° 0 mm 3 mps 669 mmHg 79%
    21:00 +4°C° 0 mm 3 mps 670 mmHg 79%
    22:00 +4°C° 0 mm 3 mps 670 mmHg 80%
    23:00 +4°C° 0 mm 2 mps 670 mmHg 81%
    Show more